Location: Krasnoyarskiy Pitomnik
(51.1333°N, 71.6167°E)
Time: 10:53:14
(UTC+00:00)

ISS - Pass Details

Date: 06 March 2024
Orbit: 413 x 419 km, 51.6° (Epoch: 13 April)

Event Time Altitude Azimuth Distance (km) Brightness Sun altitude
Exits shadow 23:44:12 20° 169° (S) 1,057 -1.8 -19.6°
Drops below altitude 10° 23:45:37 10° 151° (SSE) 1,513 -0.8 -19.4°
Sets 23:47:53 0° 140° (SE) 2,374 0.4 -19.0°
